TimeEDT,TemperatureF,Dew PointF,Humidity,Sea Level PressureIn,VisibilityMPH,Wind Direction,Wind SpeedMPH,Gust SpeedMPH,PrecipitationIn,Events,Conditions,WindDirDegrees,DateUTC
12:53 AM,21.0,6.1,53,29.87,10.0,NW,17.3,28.8,N/A,,Scattered Clouds,310,2013-03-15 04:53:00
1:53 AM,19.9,3.9,50,29.88,10.0,NW,11.5,23.0,N/A,,Mostly Cloudy,320,2013-03-15 05:53:00
2:53 AM,19.9,3.9,50,29.88,10.0,NNW,11.5,20.7,N/A,,Overcast,330,2013-03-15 06:53:00
3:53 AM,19.9,1.9,46,29.88,10.0,NW,15.0,27.6,N/A,,Partly Cloudy,320,2013-03-15 07:53:00
4:53 AM,19.0,1.0,46,29.88,10.0,NNW,12.7,23.0,N/A,,Clear,330,2013-03-15 08:53:00
5:53 AM,19.0,1.9,47,29.88,10.0,NW,9.2,18.4,N/A,,Clear,320,2013-03-15 09:53:00
6:53 AM,19.0,1.9,47,29.89,10.0,NNW,6.9,-,N/A,,Clear,330,2013-03-15 10:53:00
7:53 AM,19.9,3.9,50,29.90,10.0,NW,4.6,-,N/A,,Clear,320,2013-03-15 11:53:00
8:53 AM,21.0,3.9,48,29.90,10.0,NW,12.7,-,N/A,,Clear,310,2013-03-15 12:53:00
9:53 AM,24.1,3.9,42,29.89,10.0,WNW,8.1,19.6,N/A,,Clear,300,2013-03-15 13:53:00
10:53 AM,27.0,3.9,37,29.86,10.0,NNW,6.9,-,N/A,,Mostly Cloudy,330,2013-03-15 14:53:00
11:53 AM,30.0,1.0,29,29.83,10.0,WNW,9.2,-,N/A,,Mostly Cloudy,290,2013-03-15 15:53:00
12:53 PM,33.1,-0.0,24,29.79,10.0,WSW,6.9,-,N/A,,Scattered Clouds,240,2013-03-15 16:53:00
1:53 PM,37.0,-0.0,21,29.74,10.0,Variable,6.9,-,N/A,,Partly Cloudy,0,2013-03-15 17:53:00
2:53 PM,37.9,1.9,22,29.70,10.0,SW,10.4,16.1,N/A,,Mostly Cloudy,230,2013-03-15 18:53:00
3:53 PM,39.0,7.0,27,29.68,10.0,WSW,9.2,19.6,N/A,,Mostly Cloudy,240,2013-03-15 19:53:00
4:53 PM,39.0,15.1,38,29.66,10.0,WSW,10.4,19.6,N/A,,Mostly Cloudy,250,2013-03-15 20:53:00
5:53 PM,37.0,19.0,48,29.67,10.0,West,10.4,21.9,N/A,,Overcast,260,2013-03-15 21:53:00
6:53 PM,36.0,23.0,59,29.68,10.0,WSW,6.9,-,0.00,,Overcast,250,2013-03-15 22:53:00
7:53 PM,35.1,27.0,72,29.67,10.0,SSW,8.1,-,0.00,,Mostly Cloudy,210,2013-03-15 23:53:00
8:53 PM,34.0,28.0,79,29.68,8.0,SW,4.6,-,0.00,Snow,Light Snow,220,2013-03-16 00:53:00
9:53 PM,33.1,28.9,85,29.66,10.0,SSW,5.8,-,0.00,,Scattered Clouds,200,2013-03-16 01:53:00
10:53 PM,30.9,28.0,89,29.66,10.0,Variable,4.6,-,N/A,,Partly Cloudy,0,2013-03-16 02:53:00
11:53 PM,33.1,25.0,72,29.71,9.0,NNW,18.4,28.8,0.00,Snow,Light Snow,330,2013-03-16 03:53:00